www.pogodaiklimat.ru

Погода и климат >> Архив погоды >> Гана >> Тема


ПОГОДА в Тема

  • Прогноз погоды в Тема
  • Монитор погоды в Тема

АРХИВ ПОГОДЫ в Тема

Время (UTC), дата Ветер
(напр.,м/с)
 
Видим.   Явления Облачность Т
(С)
Тd
(С)
f
(%)
Тe
(С)
Тes
(С)
Комфортность P
(гПа)
Po
(гПа)
Тmin
(С)
Tmax
(С)
R
(мм)
R24
(мм)
S
(см)
15 19.06 ЮЗ 5 18 км 3/3 500 м
[Cu med, cong]
+28.5 +25.3 83 +42 +46 опасность
перегрева
1014.7 1012.6
21 19.06 ЮЗ 4 10 км 5/5 300 м
[Sc]
+26.6 +25.6 94 +39 +39 очень
душно
1013.2 1011.1
00 20.06 З 3 10 км 4/4 300 м
[Sc]
+26.3 +25.3 94 +38 +38 очень
душно
1013.3 1011.2
03 20.06 ЮЗ 3 10 км 3/3 300 м
[Sc]
+26.0 +25.1 95 +37 +37 очень
душно
1012.7 1010.6
09 20.06 ЮЗ 3 15 км 8/6 360 м
[Cu Sc Ci sp]
+28.1 +25.1 84 +41 +44 опасность
перегрева
1015.3 1013.2
12 20.06 ЮЗ 5 16 км 4/3 480 м
[Cu med, cong Ci sp]
+29.1 +24.9 78 +42 +50 опасность
перегрева
1014.0 1011.9
15 20.06 ЮЗ 5 18 км 3/3 360 м
[Cu Sc]
+28.5 +24.9 81 +41 +45 опасность
перегрева
1012.5 1010.4
12 21.06 ЮЗ 4 16 км 6/3 500 м
[Cu med, cong Ac trans]
+29.0 +24.3 76 +41 +48 опасность
перегрева
1014.9 1012.8
15 21.06 ЮЗ 4 16 км 9/3 500 м
[Cu med, cong Ac trans Ci sp]
+29.0 +25.0 79 +42 +44 опасность
перегрева
1013.1 1011.0
18 21.06 ЮЗ 4 16 км 8/4 400 м
[Cu Sc Ac trans]
+27.0 +24.7 87 +38 +38 очень
душно
1013.2 1011.1 +30.4
00 22.06 ЮЗ 3 12 км 9/4 330 м
[Sc Ac trans]
+25.9 +24.5 92 +36 +36 очень
душно
1014.1 1012.0
06 22.06 ЮЗ 4 14 км 8/5 330 м
[Sc Ci sp]
+26.0 +23.9 88 +36 +36 очень
душно
1014.2 1012.1 +25.8
09 23.06 З 2 12 км 8/4 330 м
[Cu Sc Ac trans]
+26.9 +24.2 85 +37 +41 очень
душно
1013.8 1011.7
12 23.06 ЮЗ 3 12 км 6/3 450 м
[Cu med, cong Ac trans]
+27.2 +24.3 84 +38 +47 очень
душно
1013.0 1010.9
15 23.06 ЮЗ 5 19 км 8/1 480 м
[Cu med, cong Ac trans Ci sp]
+27.9 +23.3 76 +38 +41 очень
душно
1010.8 1008.7
18 23.06 ЮЗ 5 12 км 9/4 360 м
[Sc Ac trans Cs]
+25.7 +23.6 88 +35 +35 очень
душно
1011.6 1009.5 +28.6
09 24.06 ЮЗ 5 16 км 9/5 400 м
[Sc Ac trans]
+27.6 +24.3 82 +39 +40 очень
душно
1013.8 1011.7
12 24.06 ЮЗ 5 18 км 8/4 480 м
[Cu med, cong Ac trans Cs]
+28.0 +23.8 78 +39 +43 очень
душно
1012.4 1010.3
15 24.06 ЮЗ 6 18 км 8/3 500 м
[Cu med, cong Ac trans Cs]
+27.6 +24.0 81 +38 +40 очень
душно
1010.5 1008.4
18 24.06 ЮЗ 6 18 км 9/5 360 м
[Sc Ac trans Cs]
+25.5 +24.1 92 +35 +35 очень
душно
1011.2 1009.1 +28.5
21 24.06 Ю 3 8000 м гроза, ливневой дождь 9/5 300 м
[Cb cap Ac As]
+22.5 +22.0 97 +30 +30 очень
душно
1013.5 1011.4
00 25.06 ЮЗ 2 8000 м слаб. дождь {гроза} 9/5 300 м
[Sc Ac As]
+22.5 +22.0 97 +30 +30 очень
душно
1011.0 1008.9 28
03 25.06 СЗ 2 8000 м слаб. дождь 9/5 300 м
[Sc Ac As]
+22.5 +21.8 96 +30 +30 очень
душно
1010.3 1008.2
12 25.06 ЮЗ 3 16 км {дождь} 9/6 330 м
[Cu med, cong Ac trans]
+25.1 +22.8 87 +33 +37 очень
душно
1013.0 1010.9 0.0
15 25.06 ЮЗ 3 18 км в посл. час дождь 9/8 330 м
[Sc Ac As]
+24.9 +23.0 89 +33 +34 очень
душно
1012.4 1010.3
21 25.06 СЗ 2 10 км дождь 9/6 300 м
[Sc Ac As]
+24.0 +22.6 92 +31 +31 очень
душно
1013.6 1011.5
00 26.06 ЮЗ 3 10 км {дождь} 9/5 300 м
[Sc Ac trans Cs]
+23.8 +22.4 92 +31 +31 очень
душно
1014.2 1012.1 0.3
03 26.06 ЮЗ 3 10 км 9/9 300 м
[Sc]
+23.8 +22.2 91 +31 +31 очень
душно
1012.6 1010.5

 

Местоположение метеостанции Тема (Гана): широта 5.62 долгота 0.00 высота над уровнем моря 18 м.

В архиве по умолчанию представлена погода в Тема за последнюю неделю. Архивные данные за месяц целиком и за предыдущие месяцы, начиная с января 2011 года, Вы можете получить, выбрав интересующий диапазон дат из раскрывающегося списка и нажав кнопку "Ввод!".


*Определитесь, кто Вы:
робот инопланетянин человек

Внимание! Время в таблицах - всемирное. Для получения местного времени необходимо прибавить поправку, которая равна 1 ч.

Смотрите также архив погоды в соседних городах и на ближайших метеорологических станциях:

Погода в Аккра (Гана) (19 км)
Погода в Акюсе (Гана) (55 км)
Погода в Кофоридуа (Гана) (58 км)
Погода в Ада (Гана) (72 км)
Погода в Акатзи (Гана) (105 км)
Погода в Аким Ода (Гана) (114 км)
Погода в Хо (Гана) (121 км)
Погода в Солтпонде (Гана) (127 км)
Погода в Абетифи (Гана) (143 км)
Погода в Ломе (Того) (151 км)

Пояснения к столбцам:

Ветер - указаны скорость ветра в м/с - средняя за 10 мин, порывы в срок и между сроками (в фигурных скобках) и направление, откуда дует ветер: С - северный, СВ - северо-восточный, В - восточный, ЮВ - юго-восточный, Ю - южный, ЮЗ - юго-западный, З - западный, СЗ - северо-западный.
Видимость - горизонтальная дальность видимости в метрах или километрах. При видимости от 1 до 10 км при отсутствии осадков обычно наблюдается дымка, при ухудшении видимости до 1 км и менее - туман. В сухую погоду видимость может ухудшаться дымом, пылью или мглою.
Явления - указаны атмосферные явления, наблюдавшиеся в срок или в последний час перед сроком; фигурными скобками обозначены явления, наблюдавшиеся между сроками (за 1-3 часа до срока); квадратными скобками обозначены град или гололедные отложения с указанием их диаметра в мм.
Облачность - указаны через наклонную черту общая и нижняя облачность в баллах и высота нижней границы облаков в метрах; квадратными скобками обозначены формы облаков: Ci - перистые, Cs - перисто-слоистые, Cc - перисто-кучевые, Ac - высококучевые, As - высокослоистые, Sc - слоисто-кучевые, Ns - слоисто-дождевые, Cu - кучевые, Cb - кучево-дождевые. Подробнее классификацию облаков см. в Атласе облаков (PDF).
T - Температура воздуха - температура, измеренная на высоте 2 м над землей.
Td - Температура точки росы - температура, при понижении до которой содержащийся в воздухе водяной пар достигнет насыщения.
f - Относительная влажность воздуха - влажноcть воздуха, измеренная на высоте 2 м над землей.
Te - Эффективная температура - температура, которую ощущает одетый по сезону человек в тени. Характеристика душности погоды. При расчете учитывается влияние влажности воздуха и скорости ветра на теплоощущения человека.
Tes - Эффективная температура на солнце - температура, которую ощущает человек, с поправкой на солнечный нагрев. Характеристика знойности погоды. Зависит от высоты солнца над горизонтом, облачности и скорости ветра. Ночью, в пасмурную погоду, а также при ветре 12 м/с и более поправка равна нулю.
P - Атмосферное давление - приведенное к уровню моря атмосферное давление.
Po - Атмосферное давление - измеренное на уровне метеостанции атмосферное давление.
Tmin - Минимальная температура - минимум температуры воздуха на высоте 2 м над землей.
Tmax - Максимальная температура - максимум температуры воздуха на высоте 2 м над землей.
R - Количество осадков - Количество выпавших осадков за период времени, мм. При наведении курсора мыши на число - период времени, за который выпало указанное количество осадков.
R24 - Количество осадков - Количество выпавших осадков за 24 часа, мм.
S - Снежный покров - Высота снежного покрова, см. При наведении курсора мыши на число - состояние снежного покрова и степень покрытия местности в баллах.